Reflectivity
17 17 18 10 26 25 18 26 18 19 18 29 26 13 12 13 11 -17 -20 -20 -20 -20 -20 -20 -20 -20 -20 -20 -20 -20 -20 -20 -20 -20 -20 -20 -20 -20 -20 -20 -20 -20 -20
9 -7 1 8 11 21 25 23 29 17 28 30 29 32 26 12 -12 -20 -20 -20 -20 -20 -20 -20 -20 -20 -20 -20 -20 -20 -20 -20 -20 -20 -20 -20 -20 -20 -20 -20 -20 -20 -20
8 -7 -0 -14 14 -6 18 23 28 32 32 31 33 31 26 -9 -20 -20 -20 -20 -20 -20 -20 -20 -20 -20 -20 -20 -20 -20 -20 -20 -20 -20 -20 -20 -20 -20 -20 -20 -20 -20 -20
9 20 9 -20 22 4 -6 17 21 25 26 30 33 29 32 19 9 -20 -20 -20 -20 -20 -15 -18 -20 -20 -20 -20 -20 -20 -20 -20 -20 -20 -20 -20 -20 -20 -20 -20 -20 -20 -20
-3 14 13 -3 4 -9 -20 8 15 20 25 33 30 30 32 21 -8 -7 18 11 18 9 -20 -20 -20 -20 -20 -20 -20 -20 -20 -20 -20 -20 -20 -20 -20 -20 -20 -20 -20 -20 -20
15 6 18 -4 -6 6 14 -19 3 20 22 27 28 27 33 28 37 27 10 -20 -15 -20 -20 -20 -20 -1 -4 -20 -20 -20 -20 -20 -20 -20 -20 -20 -20 -20 -20 -20 -20 -20 -20
26 7 13 33 8 4 31 -16 2 2 14 14 25 32 31 23 30 26 9 -20 -20 -20 -20 -20 -20 -20 -9 -20 4 -19 -20 -20 -20 -20 -20 -20 -20 -20 -20 -20 -20 -20 -20
26 13 -1 -10 12 -10 8 -20 -20 -0 5 8 6 21 29 31 25 19 -17 -20 -20 -20 -20 -20 -20 -20 -11 -10 -20 -20 -20 -20 -20 -20 -20 -20 -20 -20 -20 -20 -20 -20 -20
25 28 25 -4 11 -3 10 -7 -20 -6 -11 19 7 19 18 18 19 11 -19 -20 -20 -20 -20 -20 -20 -20 15 11 -14 -20 -20 -20 4 7 -13 -5 -13 2 -1 -20 -20 -20 -20
27 23 21 16 8 5 2 19 8 -5 16 28 5 6 26 22 29 17 -3 -20 -20 -4 10 6 3 5 9 -13 -19 -20 -20 -20 -20 -13 -18 3 7 3 5 -9 -20 -20 -20
23 22 13 -10 8 -3 -6 13 -6 -16 -14 29 14 29 -2 16 19 12 -20 -10 -12 -17 -20 -16 -10 -20 -17 1 -1 -20 -20 -20 -18 -12 -20 -20 -20 -20 -20 -20 -20 -20 -20
25 23 14 1 5 -4 -8 -19 6 16 -15 30 -5 21 -18 -20 -14 -20 -20 -20 -18 -17 -4 -2 -4 -15 -20 -20 -20 -20 -20 -20 -20 -20 -20 -20 -8 -20 -20 -20 -20 -20 -19
25 25 20 -1 -12 -1 -7 -16 -14 -13 -19 13 0 20 17 6 -12 4 -20 -20 -20 -10 -20 -20 -20 -20 -20 -16 -16 -20 -20 -20 -20 -20 -20 -20 -20 -20 -20 -19 -20 -20 -20
21 21 19 3 -0 -7 -1 5 10 7 13 -9 21 -6 13 1 12 -2 -16 -8 -17 8 9 -14 -20 -20 -20 -20 -20 -20 -18 -20 -20 -20 -20 -20 -20 -20 -20 -20 -20 -18 -20
12 0 2 -9 -7 -1 -3 4 12 9 14 21 5 25 17 16 6 20 18 12 16 8 -8 -15 -20 -20 -20 -20 -20 -20 -20 -20 -20 -19 -19 -19 -19 -19 -18 -20 -20 -20 -20
15 -3 -9 -0 -8 2 -19 -12 17 22 22 21 23 21 8 21 22 19 12 -10 4 -1 -1 -7 -13 -10 -20 -20 -20 -20 -20 -20 -20 -20 -20 -20 -17 -17 -20 -20 -20 -20 -20
9 15 -3 -6 -6 -20 -20 -4 -13 -7 -1 -0 -2 4 8 9 -3 -3 -1 7 6 14 1 -20 -20 -20 -20 -18 -20 -20 -20 -20 -20 -20 -20 -20 -20 -20 -20 -20 -20 -20 -20
-2 1 -12 4 -0 -20 -3 -3 -5 -20 -20 -10 7 13 10 -10 -4 14 15 13 14 11 8 1 -16 -20 -20 -16 -10 -13 -17 -20 -20 -20 -20 -20 -20 -20 -20 -20 -20 -20 -20
-20 -20 -16 -15 -0 1 -9 -4 -20 -12 -16 -12 -12 -1 12 12 7 2 16 -6 -3 -19 -16 -20 -20 -19 -15 -15 -15 -15 -17 -18 -20 -20 -20 -20 -20 -20 -20 -20 -20 -20 -20
-20 -16 -1 -2 6 3 -15 -14 -20 -12 -2 -3 -3 -10 -8 6 2 8 17 6 -15 -20 -20 -19 -20 -20 -18 -20 -20 -20 -20 -20 -20 -20 -20 -20 -20 -20 -20 -20 -20 -20 -20
-20 -20 -9 -10 4 2 -20 -20 -12 -3 -3 -2 2 2 17 13 -3 14 -10 -17 -18 -20 -19 -19 -18 -19 -18 -17 -18 -20 -20 -20 -20 -20 -20 -20 -20 -20 -20 -20 -20 -20 -20
-20 -20 -20 -20 -20 -9 -20 -20 -20 -3 -4 -3 2 2 13 -8 -12 -7 -18 -20 -18 -12 -7 -8 -10 -15 -20 -20 -18 -20 -20 -20 -20 -20 -20 -20 -20 -20 -20 -20 -20 -20 -20
-20 -20 -20 -20 -20 -20 -20 -20 -19 -3 -11 -12 -20 -16 -19 -1 -12 -13 -7 -12 -10 -18 -17 -17 -20 -20 -20 -20 -19 -19 -20 -20 -20 -20 -20 -20 -20 -20 -20 -15 -20 -20 -20
-20 -20 -20 -20 -5 -20 -20 -20 -20 -20 -20 -20 -20 -20 -16 -1 -1 1 6 10 4 -15 -17 -20 -20 -20 -20 -20 -20 -20 -20 -19 -20 -20 -20 -20 -20 -20 -17 -5 -20 -20 -20
-20 -20 -20 -20 -20 -20 -20 -20 -20 -20 -20 -20 -20 -20 -20 -8 2 3 4 8 -0 -18 -20 -20 -20 -20 -20 -20 -20 -20 -20 -20 -20 -20 -20 -20 -20 -15 -15 -20 -20 -20 -20
-20 -20 -20 -20 -20 -20 -20 -20 -20 -20 -20 -20 -20 -20 -20 -16 1 -0 3 1 -10 -18 -20 -20 -20 -20 -20 -20 -20 -20 -20 -20 -13 -7 -20 -13 10 8 -20 -20 -15 -13 -20
Wind_Speed
14 12 13 11 12 12 11 12 14 16 16 16 15 14 15 15 16 15 15 13 14 12 11 11 11 9 7 6 5 4 5 4 4 3 2 5 6 6 5 7 6 7 6
6 8 12 12 12 12 12 13 12 14 15 17 16 14 14 15 17 17 17 14 16 14 14 11 12 8 10 8 6 7 6 6 4 5 5 5 5 5 5 6 5 5 7
10 5 10 12 12 13 13 13 14 14 13 12 15 16 15 16 16 16 16 15 15 14 14 15 15 14 12 9 9 8 7 5 6 4 4 3 4 3 5 6 6 6 6
11 7 4 13 12 13 12 13 13 14 15 15 14 14 13 14 14 13 12 11 10 11 13 15 14 15 15 14 11 11 8 7 6 5 5 4 4 4 5 5 5 5 6
11 8 7 4 10 12 12 12 13 12 13 13 14 13 13 11 9 12 13 13 13 13 12 11 12 13 15 14 10 11 10 9 7 7 6 5 5 5 6 3 3 5 7
11 9 7 7 3 12 13 13 12 12 12 12 13 15 14 10 18 22 16 12 11 11 11 11 10 11 13 16 17 13 14 12 10 7 7 8 8 7 5 5 4 2 4
11 10 9 8 7 4 11 12 12 13 13 13 12 12 13 13 19 21 19 10 11 11 10 9 9 8 12 10 15 12 15 16 9 11 7 9 7 8 7 6 5 4 4
10 10 10 9 8 6 1 11 11 11 13 12 12 12 11 10 19 21 21 11 11 11 10 11 10 10 10 11 11 11 11 12 11 7 9 7 6 8 7 5 4 4 6
11 11 11 9 8 8 6 5 8 9 9 10 9 12 13 11 22 21 18 11 9 10 10 11 10 10 14 18 11 11 9 7 8 7 3 8 10 10 7 4 3 2 2
11 11 12 9 7 7 6 5 1 6 6 6 8 9 10 5 17 22 19 8 9 7 8 9 15 12 16 21 12 11 10 9 10 8 8 10 9 7 8 1 2 2 2
12 11 10 8 8 7 7 4 2 4 5 6 6 7 8 9 13 20 22 9 8 7 7 7 8 18 16 18 17 10 11 8 12 9 8 6 6 5 3 2 2 2 3
11 11 11 9 7 6 7 5 3 4 6 7 6 5 4 6 10 18 21 13 10 7 8 6 8 18 17 16 16 12 12 13 8 8 7 6 6 5 4 2 2 3 5
11 10 9 9 8 7 5 4 2 2 3 5 6 6 5 4 4 14 19 19 16 8 7 10 13 14 15 12 16 14 12 7 7 8 7 5 4 5 4 2 2 4 6
10 9 7 8 8 7 5 3 2 1 2 4 4 4 5 4 4 6 8 11 14 8 10 7 8 9 12 8 10 10 7 6 6 6 6 6 5 4 3 2 1 3 5
9 8 7 7 7 6 4 2 2 1 0 3 3 4 7 6 7 9 10 9 8 8 9 6 6 7 7 6 6 7 7 6 5 6 7 6 5 4 3 2 0 2 4
9 8 7 6 6 6 5 3 2 1 1 2 5 5 3 6 13 15 14 16 19 20 6 7 8 8 8 8 8 8 7 9 7 7 7 6 5 4 3 2 0 2 5
9 9 7 6 5 6 5 4 2 1 1 2 4 5 7 8 13 16 16 19 22 19 5 7 7 8 8 8 8 8 8 7 7 7 7 6 5 4 3 2 1 2 4
9 12 6 5 5 5 4 4 3 2 1 2 3 4 6 8 10 14 18 19 12 8 7 7 7 7 8 8 8 8 8 7 6 6 5 5 4 4 3 2 1 2 5
9 7 7 6 4 5 4 4 3 2 2 1 1 3 7 10 11 15 23 8 10 7 7 8 8 8 8 8 9 8 9 8 7 6 6 5 4 3 2 1 2 5 7
8 13 9 5 4 4 4 4 4 2 3 3 4 3 3 7 5 7 8 7 7 7 7 8 8 8 9 9 9 9 8 8 8 7 6 5 4 3 3 2 2 4 5
7 7 10 5 4 3 4 4 3 3 4 3 4 3 6 3 2 7 9 8 8 8 8 8 8 8 8 8 9 8 8 8 7 6 6 5 4 3 3 2 3 4 5
7 7 6 5 5 4 4 4 4 4 4 4 3 3 9 5 6 6 8 8 8 8 7 9 8 8 8 8 9 8 8 7 7 6 6 5 4 3 2 2 3 4 5
6 6 5 4 3 4 3 2 3 3 3 3 4 6 4 5 6 6 8 9 9 9 8 8 9 8 8 8 7 7 7 7 6 6 6 5 4 2 2 3 3 4 6
6 6 5 4 3 2 2 2 3 4 5 5 5 5 5 5 6 9 9 9 10 10 9 9 9 11 10 8 8 7 6 5 5 5 5 4 3 2 2 3 4 5 6
6 5 4 4 3 3 3 3 4 4 5 5 6 6 7 7 8 9 9 9 10 11 12 11 10 13 12 11 9 9 9 10 5 4 3 4 4 4 3 3 5 6 6
6 5 3 2 2 2 2 3 4 5 6 6 6 7 8 8 9 9 9 10 10 11 13 9 11 14 12 9 8 7 7 6 6 6 6 5 4 3 3 4 5 5 7
Wind_Direction
170 169 171 168 165 159 160 166 176 166 168 170 171 179 178 179 188 193 198 190 199 188 197 199 196 186 185 184 191 183 198 199 195 151 172 179 179 199 204 223 238 259 276
359 179 169 163 164 163 165 164 162 170 175 177 174 178 185 184 190 194 195 194 200 193 199 193 199 188 195 190 185 199 207 201 195 207 182 189 213 205 229 238 245 264 275
337 344 172 164 163 168 163 166 169 165 165 174 172 178 188 186 189 195 197 196 200 202 199 201 202 195 201 191 192 201 205 201 197 196 173 173 194 214 226 240 254 268 271
336 341 201 166 165 168 163 162 164 165 166 169 172 182 185 185 187 187 189 191 197 209 208 211 205 200 202 196 197 203 193 193 203 210 204 176 183 191 243 257 260 245 279
342 342 14 17 169 162 158 169 156 163 167 172 170 181 179 186 187 188 191 197 195 200 201 208 211 204 206 198 187 192 183 189 193 201 216 209 193 186 224 195 253 286 286
346 344 356 12 349 162 162 166 163 160 162 166 177 175 173 185 188 193 186 186 191 190 199 202 208 199 208 206 206 199 193 189 193 187 210 220 215 212 201 217 250 295 297
345 348 349 12 16 150 171 165 168 168 161 177 175 170 181 188 184 189 185 179 182 191 194 195 198 200 200 200 210 205 212 212 197 190 199 211 219 198 189 196 215 223 256
347 348 341 7 14 15 226 182 177 169 174 172 180 176 177 186 181 185 184 187 190 194 192 197 197 195 191 193 197 201 214 212 211 205 216 218 200 165 173 170 185 250 280
348 345 331 356 0 1 14 206 179 165 171 179 181 178 184 186 183 181 174 182 186 192 194 196 195 187 194 195 188 194 194 199 192 199 225 131 140 147 147 157 202 247 299
341 334 321 346 353 348 347 338 211 177 170 158 171 185 179 188 180 178 173 170 178 177 182 199 198 193 194 196 195 190 191 182 167 150 140 136 131 141 150 174 159 211 268
330 325 319 341 344 340 336 318 311 152 138 147 141 176 172 176 175 183 180 173 170 171 187 188 200 200 195 198 198 195 203 164 171 151 140 133 132 144 152 155 169 219 233
326 322 327 347 346 335 333 336 330 162 162 151 156 138 166 164 172 178 179 175 182 168 187 196 198 190 190 194 194 200 195 162 156 150 146 149 151 159 154 169 218 243 247
328 331 335 340 345 342 335 337 0 127 153 140 163 167 166 150 162 183 185 179 187 185 181 188 179 175 176 188 193 176 183 168 162 158 156 138 141 136 128 181 232 268 274
325 330 340 347 355 347 328 344 343 124 127 137 164 172 138 152 160 167 186 179 183 173 162 150 156 163 164 168 168 168 148 158 159 149 137 118 128 133 149 180 231 310 306
327 338 355 350 356 338 328 335 3 36 119 170 156 166 157 179 194 176 176 171 169 157 131 133 141 148 141 134 115 125 128 127 124 135 130 129 139 150 166 153 169 320 297
326 343 345 352 345 335 325 332 346 350 317 202 179 173 168 149 167 180 182 169 160 154 141 149 154 157 149 144 143 139 133 135 143 131 126 143 159 170 165 153 129 302 310
326 325 324 346 344 329 328 320 320 0 315 236 207 204 193 174 184 184 176 164 161 153 156 162 157 147 146 149 148 143 139 142 138 140 148 144 144 156 166 166 242 307 307
321 325 331 339 326 317 307 313 307 286 228 118 222 201 214 206 194 185 171 153 161 152 152 156 144 146 148 144 148 141 132 140 138 139 135 138 156 158 170 189 202 306 307
326 324 321 306 309 294 291 288 272 268 251 183 193 202 202 200 202 191 164 162 162 157 142 139 140 148 146 142 139 137 139 143 142 142 142 154 154 155 181 204 285 300 314
323 326 324 321 314 289 282 278 276 256 252 231 211 194 173 186 186 177 150 147 146 141 138 135 139 141 141 140 138 137 140 144 144 152 152 157 156 168 190 209 261 299 313
327 322 323 314 291 281 270 255 239 232 234 225 224 201 185 165 149 142 140 135 132 132 135 135 136 133 139 138 136 139 142 146 151 151 153 154 159 182 200 226 267 295 306
326 320 319 314 311 295 266 249 227 220 217 221 203 209 149 124 129 130 127 122 124 125 127 130 130 133 135 136 135 135 139 144 149 150 149 153 164 181 212 246 281 305 306
326 319 319 316 324 339 318 268 216 195 181 164 116 105 109 126 128 123 119 120 119 119 119 117 117 122 120 121 120 125 136 149 153 151 155 161 173 204 225 262 294 299 307
329 328 330 335 346 14 14 58 96 116 123 114 107 108 115 120 122 118 113 114 115 112 114 115 116 118 112 113 114 115 113 122 129 156 157 164 184 211 256 273 286 290 291
334 334 340 351 8 27 58 81 92 98 97 100 105 111 111 114 115 112 112 112 113 113 113 115 114 115 110 106 108 115 128 135 151 166 194 211 233 246 246 270 291 291 285
341 343 344 8 41 64 94 102 101 102 103 105 112 113 114 111 109 111 112 113 111 109 111 108 110 113 114 114 117 129 147 167 191 213 208 224 227 242 256 267 279 295 303